Weather in Nizhniye Taltsy

Russia / Republic of Buryatia     51°53′20″N   107°54′37″E
temp.,
°C
wind,
m/s
gust,
m/s
humid.,
%
clouds,
%
prec.,
mm/h
press.,
hPa
HPBL,
m
24 may, tue
tue2423:00+6nw346356 0.0 102084
02:00+4nw347256 0.0 102266
05:00+4nw23792 0.0 102549
08:00+12nw12460 0.0 1025485
11:00+18sw12295 0.0 10242156
14:00+21wsw222217 0.0 10222762
17:00+21w32213 0.0 10202784
20:00+16nnw343466 0.0 102288
25 may, wed
wed2523:00+11nnw2243100 0.0 102318
02:00+10nne2244100 0.0 102311
05:00+9ne1148100 0.0 102310
08:00+15sse1136100 0.0 1022302
11:00+21wsw222435 0.0 10192011
14:00+21wsw432238 0.0 10172785
17:00+22wsw432424 0.0 10142749
20:00+17w11370 0.0 101413
26 may, thu
thu2623:00+13n2146100 0.0 101312
02:00+12e1149100 0.0 101110
05:00+11ene115188 0.0 101013
08:00+17se11340 0.0 1008350
11:00+23w46233 0.0 10051934
14:00+25wnw791575 0.0 10032810
17:00+23nw8122523 0.0 10023062
20:00+17nw410450 0.0 10041331
27 may, fri
fri2723:00+12nw37564 0.0 1006391
02:00+9wnw36667 0.0 1006281
05:00+7wnw38793 0.0 1007285
08:00+11nw610508 0.0 10061389
11:00+15nnw59301 0.0 10051905
14:00+16nnw69242 0.0 10042431
17:00+16nnw582365 0.0 10042746
20:00+12nne3431100 0.0 1004146
28 may, sat
sat2823:00+7nnw2241100 0.0 100638
02:00+6nnw2246100 0.0 100645
05:00+5nnw3451100 0.0 100689
08:00+8nnw3741100 0.0 1006957
11:00+12nnw58240 0.0 10061862
14:00+13nnw710225 0.0 10072435
17:00+12n692637 0.0 10072677
20:00+8nnw411341 0.0 10091617